Regional Weather Roundup
Issued by NWS

Home | Current Version | Previous Version | Text Only | Print | Product List | Glossary On
Versions: 1 2 3 4 5 6 7 8 9 10 11 12 13 14 15 16 17 18 19 20 21 22 23 24 25 26 27 28 29 30 31 32 33 34 35 36 37 38 39 40 41 42 43 44 45 46 47 48 49 50
750
ASUS44 KLIX 230601
RWRLA
LOUISIANA WEATHER ROUNDUP
NATIONAL WEATHER SERVICE NEW ORLEANS LA
1200 AM CST SUN NOV 23 2014

NOTE: "FAIR" INDICATES FEW OR NO CLOUDS BELOW 12,000 FEET WITH NO
      SIGNIFICANT WEATHER AND/OR OBSTRUCTIONS TO VISIBILITY.
      SKY/WX - SKY CONDITION AND SIGNIFICANT WEATHER.
      TMP - AIR TEMPERATURE.    DP   - DEWPOINT TEMPERATURE.
      RH  - RELATIVE HUMIDITY.  PRES - PRESSURE.
      HX  - HEAT INDEX.         WCI  - WIND CHILL INDEX.

*  THESE STATIONS ARE NOT NWS OR FAA STATIONS AND ARE NOT UNDER
   NWS QUALITY CONTROL.

LAZ040-048-061>063-065-066-069-230700-
SOUTHEAST LOUISIANA

CITY           SKY/WX    TMP DP  RH WIND       PRES   REMARKS
N.O. AUDUBON     N/A     61  61 100 MISG        N/A
6HR MIN TEMP:  61; 6HR MAX TEMP:  65;

N.O. INTL ARPT CLOUDY    62  60  93 E17       29.83F FOG
6HR MIN TEMP:  62; 6HR MAX TEMP:  64; 6HR PCP: TRACE;

N.O. LAKEFRONT CLOUDY    62  59  90 E17       29.87F
6HR MIN TEMP:  61; 6HR MAX TEMP:  63;

N.O. DOWNTOWN* CLOUDY    61  55  82 E8        29.87F
6HR MIN TEMP:  61; 6HR MAX TEMP:  64;

SLIDELL        CLOUDY    64  60  87 E7        29.89F
6HR MIN TEMP:  64; 6HR MAX TEMP:  65;

BATON ROUGE    CLOUDY    64  61  90 E13       29.87F
6HR MIN TEMP:  63; 6HR MAX TEMP:  64;

BOOTHVILLE     CLOUDY    65  65 100 E12       29.86F
6HR MIN TEMP:  62; 6HR MAX TEMP:  66; 6HR PCP: TRACE;

BELLE CHASSE   CLOUDY    62  59  90 E16       29.85F
6HR MIN TEMP:  62; 6HR MAX TEMP:  67;

BOGALUSA*        N/A     64  59  82 E5        29.93F
6HR MIN TEMP:  63; 6HR MAX TEMP:  65;

NEW ROADS*     NOT AVBL
GONZALES*      NOT AVBL
HAMMOND*       NOT AVBL
HOUMA*         CLOUDY    65  64  96 NE7       29.85S
6HR MIN TEMP:  64; 6HR MAX TEMP:  66;

PORT FOURCHON* MOCLDY    68  66  94 E12G17    29.87F

$$

LAZ041-044-053-054-230700-
SOUTHWEST LOUISIANA

CITY           SKY/WX    TMP DP  RH WIND       PRES   REMARKS
LAKE CHARLES   TSTM      64  63  96 SE21      29.77F FOG
6HR MIN TEMP:  64; 6HR MAX TEMP:  66; 6HR PCP:  0.53;

LAFAYETTE      LGT RAIN  65  62  90 CALM      29.85F
6HR MIN TEMP:  65; 6HR MAX TEMP:  68; 6HR PCP: TRACE;

PATTERSON      CLOUDY    66  64  94 E9G16     29.85F
6HR MIN TEMP:  64; 6HR MAX TEMP:  66;

SALT POINT       N/A     69  65  86 E6        29.83S
6HR MIN TEMP:  68; 6HR MAX TEMP:  69;

NEW IBERIA     LGT RAIN  67  64  90 E8        29.85F
6HR MIN TEMP:  66; 6HR MAX TEMP:  68; 6HR PCP: TRACE;

CHENAULT AIRPK RAIN      64  64  98 E17       29.78F

$$

LAZ027-028-230700-
CENTRAL LOUISIANA

CITY           SKY/WX    TMP DP  RH WIND       PRES   REMARKS
FORT POLK      CLOUDY    64  62  94 SE15G22   29.77S
6HR MIN TEMP:  63; 6HR MAX TEMP:  65; 6HR PCP:  0.04;

ALEXANDRIA INT LGT RAIN  63  61  93 SE14      29.79F
6HR MIN TEMP:  63; 6HR MAX TEMP:  67; 6HR PCP:  0.01;

ALEXANDRIA     CLOUDY    63  60  90 SE9       29.82F
6HR MIN TEMP:  63; 6HR MAX TEMP:  66; 6HR PCP:  0.01;


$$

LAZ001-002-230700-
NORTHWEST LOUISIANA

CITY           SKY/WX    TMP DP  RH WIND       PRES   REMARKS
SHREVEPORT     HVY RAIN  62  61  96 W7        29.78F FOG
6HR MIN TEMP:  62; 6HR MAX TEMP:  66; 6HR PCP:  0.79;

BARKSDALE AFB  LGT RAIN  61  61 100 SE9       29.77F FOG
6HR MIN TEMP:  61; 6HR MAX TEMP:  65; 6HR PCP:  0.87;

DTN SHREVEPORT HVY RAIN  61  59  93 CALM      29.78F FOG
6HR MIN TEMP:  61; 6HR MAX TEMP:  66; 6HR PCP:  0.74;


$$

LAZ014-016-230700-
NORTHEAST LOUISIANA

CITY           SKY/WX    TMP DP  RH WIND       PRES   REMARKS
MONROE         CLOUDY    61  55  81 E6        29.85F
6HR MIN TEMP:  61; 6HR MAX TEMP:  64; 6HR PCP: TRACE;

TALLULAH       CLOUDY    61  56  83 SE9       29.89F
6HR MIN TEMP:  59; 6HR MAX TEMP:  64;


$$




USA.gov is the U.S. government's official web portal to all federal, state and local government web resources and services.